SCP
4 6 5 5 5 5 5 5 5 4 4 4 3 3 4 4 3 2 2 1 1 1
2 2 2 2 2 2 3 2 2 3 3 4 4 4 5 4 4 3 3 2 2 1
1 2 2 2 2 2 2 2 2 3 3 4 4 5 5 3 3 3 3 2 2 2
2 1 1 1 1 1 2 2 2 3 4 4 3 2 2 1 1 1 1 1 1 1
1 1 1 1 1 1 2 2 2 3 2 1 0 0 0 0 0 0 0 0 1 1
1 1 1 0 -0 0 1 2 3 2 1 0 0 0 0 0 0 0 0 0 0 0
0 1 0 0 0 0 1 1 1 1 0 0 0 0 0 0 0 0 0 0 0 0
0 0 0 0 0 0 1 1 1 0 0 0 0 0 0 0 0 0 0 0 0 0
0 0 0 0 0 0 1 1 1 0 0 0 0 0 0 0 0 0 0 0 0 0
0 0 0 0 0 0 1 1 0 0 0 0 0 0 0 0 0 0 0 0 0 0
0 0 0 0 0 0 0 1 0 0 0 0 0 0 0 0 0 0 0 0 0 0
0 0 0 0 0 0 0 0 0 0 0 0 0 0 0 0 0 0 0 0 0 0
0 0 0 0 0 0 0 0 0 0 0 0 0 0 0 0 0 0 0 -0 0 0
0 0 0 0 0 0 0 0 0 0 0 0 0 0 0 0 0 0 0 -0 0 0
Wind_Speed_500mb
79 78 73 70 69 62 58 58 58 58 60 58 57 59 63 63 53 58 63 73 63 62
66 63 57 51 45 43 45 47 51 55 61 62 56 56 59 59 56 56 59 55 53 50
43 37 37 38 38 36 35 37 43 45 45 44 45 46 42 42 41 42 45 47 48 49
37 29 24 24 27 28 28 29 33 38 38 35 32 28 26 23 24 25 26 27 28 32
35 32 27 28 31 26 25 25 24 27 30 29 24 20 15 14 17 19 21 24 28 30
39 39 35 34 24 29 28 26 26 27 27 22 19 15 11 11 10 9 12 18 24 29
47 48 53 40 44 36 33 30 28 27 27 26 18 12 12 8 3 4 8 13 19 23
49 54 57 53 52 49 45 41 39 38 38 33 26 22 15 14 16 19 22 26 28 29
27 51 66 68 62 60 54 49 48 48 48 43 36 33 25 27 28 31 37 39 42 40
39 21 34 56 67 67 62 59 60 59 60 54 46 41 35 37 38 41 45 45 49 47
69 37 27 42 53 62 66 69 70 71 65 56 49 42 38 38 41 46 49 52 54 54
39 53 37 34 34 39 45 57 68 67 63 56 49 46 46 46 47 50 55 57 59 57
46 48 49 43 42 39 39 46 51 55 55 55 55 55 55 52 51 51 60 60 62 62
52 57 61 58 53 52 54 53 57 62 61 60 61 62 61 58 56 56 54 49 55 64
Wind_Direction_500mb
231 231 230 231 231 228 225 228 234 238 241 245 244 241 241 235 237 238 237 240 246 264
223 220 215 214 213 216 219 221 228 232 236 238 242 243 240 242 244 239 240 249 257 259
198 199 204 209 215 217 221 225 229 231 232 231 230 232 231 234 236 239 244 250 253 253
187 184 194 204 203 199 199 204 211 220 220 218 218 219 219 220 222 228 237 241 246 248
182 175 178 188 194 190 186 185 192 197 197 193 193 201 212 225 240 251 257 260 261 263
199 195 194 194 177 189 181 180 186 194 196 197 200 206 224 202 204 233 257 268 273 274
222 206 220 205 202 195 193 195 196 201 208 209 206 194 176 183 207 290 306 300 291 285
238 226 236 226 219 212 209 211 213 212 216 216 220 210 222 258 277 297 310 316 311 294
311 232 226 230 227 224 218 218 221 225 219 223 227 230 243 263 276 296 308 312 314 301
277 305 245 231 231 230 226 224 225 222 220 222 225 229 242 258 272 287 300 307 310 306
251 271 276 243 237 236 231 230 223 218 221 224 227 236 246 261 273 284 293 301 305 303
238 245 251 238 234 227 225 223 219 221 222 225 234 241 253 266 275 282 290 297 301 299
252 245 243 242 222 224 220 217 219 225 230 236 240 247 256 264 273 281 290 297 299 297
257 255 251 250 242 236 229 231 230 236 239 244 246 255 259 266 271 280 288 286 288 295
Wind_Speed_850mb
79 78 73 70 69 62 58 58 58 58 60 58 57 59 63 63 53 58 63 73 63 62
66 63 57 51 45 43 45 47 51 55 61 62 56 56 59 59 56 56 59 55 53 50
43 37 37 38 38 36 35 37 43 45 45 44 45 46 42 42 41 42 45 47 48 49
37 29 24 24 27 28 28 29 33 38 38 35 32 28 26 23 24 25 26 27 28 32
35 32 27 28 31 26 25 25 24 27 30 29 24 20 15 14 17 19 21 24 28 30
39 39 35 34 24 29 28 26 26 27 27 22 19 15 11 11 10 9 12 18 24 29
47 48 53 40 44 36 33 30 28 27 27 26 18 12 12 8 3 4 8 13 19 23
49 54 57 53 52 49 45 41 39 38 38 33 26 22 15 14 16 19 22 26 28 29
27 51 66 68 62 60 54 49 48 48 48 43 36 33 25 27 28 31 37 39 42 40
39 21 34 56 67 67 62 59 60 59 60 54 46 41 35 37 38 41 45 45 49 47
69 37 27 42 53 62 66 69 70 71 65 56 49 42 38 38 41 46 49 52 54 54
39 53 37 34 34 39 45 57 68 67 63 56 49 46 46 46 47 50 55 57 59 57
46 48 49 43 42 39 39 46 51 55 55 55 55 55 55 52 51 51 60 60 62 62
52 57 61 58 53 52 54 53 57 62 61 60 61 62 61 58 56 56 54 49 55 64
Wind_Direction_850mb
231 231 230 231 231 228 225 228 234 238 241 245 244 241 241 235 237 238 237 240 246 264
223 220 215 214 213 216 219 221 228 232 236 238 242 243 240 242 244 239 240 249 257 259
198 199 204 209 215 217 221 225 229 231 232 231 230 232 231 234 236 239 244 250 253 253
187 184 194 204 203 199 199 204 211 220 220 218 218 219 219 220 222 228 237 241 246 248
182 175 178 188 194 190 186 185 192 197 197 193 193 201 212 225 240 251 257 260 261 263
199 195 194 194 177 189 181 180 186 194 196 197 200 206 224 202 204 233 257 268 273 274
222 206 220 205 202 195 193 195 196 201 208 209 206 194 176 183 207 290 306 300 291 285
238 226 236 226 219 212 209 211 213 212 216 216 220 210 222 258 277 297 310 316 311 294
311 232 226 230 227 224 218 218 221 225 219 223 227 230 243 263 276 296 308 312 314 301
277 305 245 231 231 230 226 224 225 222 220 222 225 229 242 258 272 287 300 307 310 306
251 271 276 243 237 236 231 230 223 218 221 224 227 236 246 261 273 284 293 301 305 303
238 245 251 238 234 227 225 223 219 221 222 225 234 241 253 266 275 282 290 297 301 299
252 245 243 242 222 224 220 217 219 225 230 236 240 247 256 264 273 281 290 297 299 297
257 255 251 250 242 236 229 231 230 236 239 244 246 255 259 266 271 280 288 286 288 295